Time,TemperatureF,DewpointF,PressureIn,WindDirection,WindDirectionDegrees,WindSpeedMPH,WindSpeedGustMPH,Humidity,HourlyPrecipIn,Conditions,Clouds,dailyrainin,SoftwareType,DateUTC
2013-04-10 00:02:00,67.0,59.0,29.83,South,188,0.0,0.0,76,0.00,,,0.00,,2013-04-10 05:02:00,
2013-04-10 00:13:00,67.0,60.0,29.83,South,188,0.0,0.0,77,0.00,,,0.00,,2013-04-10 05:13:00,
2013-04-10 00:23:00,67.0,60.0,29.83,South,188,0.0,0.0,77,0.00,,,0.00,,2013-04-10 05:23:00,
2013-04-10 00:33:00,67.0,60.0,29.82,South,188,0.0,0.0,77,0.00,,,0.00,,2013-04-10 05:33:00,
2013-04-10 00:42:00,67.0,60.0,29.82,South,188,0.0,0.0,77,0.00,,,0.00,,2013-04-10 05:42:00,
2013-04-10 00:53:00,66.0,59.0,29.81,SE,145,0.0,0.0,79,0.00,,,0.00,,2013-04-10 05:53:00,
2013-04-10 01:03:00,67.0,60.0,29.81,SE,145,0.0,0.0,78,0.00,,,0.00,,2013-04-10 06:03:00,
2013-04-10 01:12:00,67.0,60.0,29.81,SE,145,0.0,0.0,78,0.00,,,0.00,,2013-04-10 06:12:00,
2013-04-10 01:22:00,67.0,60.0,29.81,SE,145,0.0,0.0,78,0.00,,,0.00,,2013-04-10 06:22:00,
2013-04-10 01:32:00,67.0,60.0,29.82,SE,145,0.0,0.0,78,0.00,,,0.00,,2013-04-10 06:32:00,
2013-04-10 01:42:00,67.0,60.0,29.82,SE,145,0.0,0.0,78,0.00,,,0.00,,2013-04-10 06:42:00,
2013-04-10 01:52:00,66.0,60.0,29.82,SE,145,0.0,0.0,80,0.00,,,0.00,,2013-04-10 06:52:00,
2013-04-10 02:02:00,66.0,60.0,29.81,SE,145,0.0,0.0,80,0.00,,,0.00,,2013-04-10 07:02:00,
2013-04-10 02:12:00,66.0,60.0,29.81,SE,145,0.0,0.0,80,0.00,,,0.00,,2013-04-10 07:12:00,
2013-04-10 02:22:00,66.0,60.0,29.80,SE,145,0.0,0.0,81,0.00,,,0.00,,2013-04-10 07:22:00,
2013-04-10 02:32:00,66.0,60.0,29.79,SE,145,0.0,0.0,82,0.00,,,0.00,,2013-04-10 07:32:00,
2013-04-10 02:42:00,66.0,60.0,29.79,SE,145,0.0,0.0,82,0.00,,,0.00,,2013-04-10 07:42:00,
2013-04-10 02:52:00,67.0,61.0,29.79,SE,145,0.0,0.0,81,0.00,,,0.00,,2013-04-10 07:52:00,
2013-04-10 03:02:00,67.0,61.0,29.79,SE,145,0.0,0.0,81,0.00,,,0.00,,2013-04-10 08:02:00,
2013-04-10 03:12:00,67.0,61.0,29.79,SE,145,0.0,0.0,81,0.00,,,0.00,,2013-04-10 08:12:00,
2013-04-10 03:22:00,65.0,58.0,29.80,ESE,102,0.0,0.0,79,0.00,,,0.00,,2013-04-10 08:22:00,
2013-04-10 03:32:00,64.0,57.0,29.80,NNE,30,0.0,0.0,79,0.00,,,0.00,,2013-04-10 08:32:00,
2013-04-10 03:42:00,64.0,57.0,29.80,NNE,30,0.0,0.0,79,0.00,,,0.00,,2013-04-10 08:42:00,
2013-04-10 03:52:00,64.0,59.0,29.79,NE,44,0.0,0.0,85,0.00,,,0.00,,2013-04-10 08:52:00,
2013-04-10 04:02:00,65.0,60.0,29.78,ESE,113,0.0,0.0,84,0.00,,,0.00,,2013-04-10 09:02:00,
2013-04-10 04:12:00,61.0,55.0,29.78,NE,47,0.0,0.0,80,0.00,,,0.00,,2013-04-10 09:12:00,
2013-04-10 04:22:00,61.0,55.0,29.78,NE,47,0.0,0.0,80,0.00,,,0.00,,2013-04-10 09:22:00,
2013-04-10 04:32:00,60.0,53.0,29.77,NE,53,0.0,0.0,79,0.00,,,0.00,,2013-04-10 09:32:00,
2013-04-10 04:43:00,60.0,53.0,29.77,NE,53,0.0,0.0,79,0.00,,,0.00,,2013-04-10 09:43:00,
2013-04-10 04:53:00,59.0,53.0,29.76,NE,53,0.0,0.0,81,0.00,,,0.00,,2013-04-10 09:53:00,
2013-04-10 05:03:00,59.0,54.0,29.76,NE,53,0.0,0.0,82,0.00,,,0.00,,2013-04-10 10:03:00,
2013-04-10 05:12:00,58.0,53.0,29.75,NE,53,0.0,0.0,83,0.00,,,0.00,,2013-04-10 10:12:00,
2013-04-10 05:23:00,58.0,53.0,29.75,NE,53,0.0,0.0,83,0.00,,,0.00,,2013-04-10 10:23:00,
2013-04-10 05:33:00,58.0,53.0,29.75,NE,53,0.0,0.0,83,0.00,,,0.00,,2013-04-10 10:33:00,
2013-04-10 05:42:00,58.0,53.0,29.75,NE,53,0.0,0.0,83,0.00,,,0.00,,2013-04-10 10:42:00,
2013-04-10 05:52:00,58.0,54.0,29.75,NE,53,0.0,0.0,85,0.00,,,0.00,,2013-04-10 10:52:00,
2013-04-10 06:02:00,58.0,54.0,29.75,NE,53,0.0,0.0,85,0.00,,,0.00,,2013-04-10 11:02:00,
2013-04-10 06:12:00,58.0,54.0,29.75,NE,53,0.0,0.0,85,0.00,,,0.00,,2013-04-10 11:12:00,
2013-04-10 06:22:00,58.0,54.0,29.75,NE,53,0.0,0.0,86,0.00,,,0.00,,2013-04-10 11:22:00,
2013-04-10 06:32:00,58.0,54.0,29.76,NE,53,0.0,0.0,87,0.00,,,0.00,,2013-04-10 11:32:00,
2013-04-10 06:42:00,58.0,54.0,29.76,NE,53,0.0,0.0,87,0.00,,,0.00,,2013-04-10 11:42:00,
2013-04-10 06:53:00,59.0,55.0,29.79,NNW,329,0.0,0.0,87,0.00,,,0.00,,2013-04-10 11:53:00,
2013-04-10 07:03:00,56.0,51.0,29.79,NE,42,0.0,0.0,82,0.00,,,0.00,,2013-04-10 12:03:00,
2013-04-10 07:12:00,56.0,51.0,29.79,NE,42,0.0,0.0,82,0.00,,,0.00,,2013-04-10 12:12:00,
2013-04-10 07:22:00,52.0,48.0,29.85,North,350,0.0,0.0,86,0.03,,,0.03,,2013-04-10 12:22:00,
2013-04-10 07:33:00,50.0,46.0,29.85,NNE,29,0.0,0.0,87,0.03,,,0.03,,2013-04-10 12:33:00,
2013-04-10 07:42:00,50.0,46.0,29.85,NNE,29,0.0,0.0,87,0.03,,,0.03,,2013-04-10 12:42:00,
2013-04-10 07:52:00,49.0,46.0,29.85,ENE,61,0.0,0.0,89,0.03,,,0.03,,2013-04-10 12:52:00,
2013-04-10 08:02:00,48.0,45.0,29.86,NE,49,0.0,0.0,89,0.03,,,0.03,,2013-04-10 13:02:00,
2013-04-10 08:12:00,48.0,45.0,29.86,NE,49,0.0,0.0,89,0.03,,,0.03,,2013-04-10 13:12:00,
2013-04-10 08:23:00,47.0,44.0,29.85,ENE,59,0.0,0.0,90,0.00,,,0.03,,2013-04-10 13:23:00,
2013-04-10 08:32:00,47.0,44.0,29.84,NE,40,0.0,0.0,90,0.00,,,0.03,,2013-04-10 13:32:00,
2013-04-10 08:43:00,47.0,44.0,29.84,NE,40,0.0,0.0,90,0.00,,,0.03,,2013-04-10 13:43:00,
2013-04-10 08:53:00,46.0,43.0,29.84,ENE,69,0.0,0.0,90,0.00,,,0.03,,2013-04-10 13:53:00,
2013-04-10 09:02:00,46.0,43.0,29.85,NE,44,0.0,0.0,90,0.00,,,0.03,,2013-04-10 14:02:00,
2013-04-10 09:12:00,46.0,43.0,29.85,NE,44,0.0,0.0,90,0.00,,,0.03,,2013-04-10 14:12:00,
2013-04-10 09:22:00,46.0,43.0,29.87,NE,44,0.0,0.0,90,0.00,,,0.03,,2013-04-10 14:22:00,
2013-04-10 09:32:00,46.0,43.0,29.88,ENE,71,0.0,0.0,90,0.00,,,0.03,,2013-04-10 14:32:00,
2013-04-10 09:42:00,47.0,44.0,29.86,NE,53,0.0,0.0,90,0.00,,,0.03,,2013-04-10 14:42:00,
2013-04-10 09:52:00,47.0,44.0,29.86,NE,53,0.0,0.0,90,0.00,,,0.03,,2013-04-10 14:52:00,
2013-04-10 10:02:00,47.0,44.0,29.87,NE,47,0.0,0.0,90,0.00,,,0.03,,2013-04-10 15:02:00,
2013-04-10 10:12:00,47.0,44.0,29.87,NE,47,0.0,0.0,90,0.00,,,0.03,,2013-04-10 15:12:00,
2013-04-10 10:22:00,47.0,44.0,29.86,NE,46,0.0,0.0,89,0.01,,,0.04,,2013-04-10 15:22:00,
2013-04-10 10:32:00,47.0,44.0,29.90,ENE,70,0.0,0.0,90,0.01,,,0.04,,2013-04-10 15:32:00,
2013-04-10 10:42:00,47.0,44.0,29.90,ENE,70,0.0,0.0,90,0.01,,,0.04,,2013-04-10 15:42:00,
2013-04-10 10:52:00,48.0,45.0,29.88,East,96,0.0,0.0,90,0.01,,,0.04,,2013-04-10 15:52:00,
2013-04-10 11:03:00,48.0,45.0,29.86,East,96,0.0,0.0,90,0.01,,,0.04,,2013-04-10 16:03:00,
2013-04-10 11:13:00,48.0,45.0,29.86,East,96,0.0,0.0,90,0.01,,,0.04,,2013-04-10 16:13:00,
2013-04-10 11:23:00,50.0,47.0,29.87,East,87,0.0,0.0,90,0.00,,,0.04,,2013-04-10 16:23:00,
2013-04-10 11:33:00,51.0,48.0,29.88,East,92,0.0,0.0,89,0.00,,,0.04,,2013-04-10 16:33:00,
2013-04-10 11:43:00,51.0,48.0,29.88,East,92,0.0,0.0,89,0.00,,,0.04,,2013-04-10 16:43:00,
2013-04-10 11:53:00,50.0,47.0,29.88,East,82,0.0,0.0,88,0.00,,,0.04,,2013-04-10 16:53:00,
2013-04-10 12:02:00,50.0,47.0,29.88,East,82,0.0,0.0,88,0.00,,,0.04,,2013-04-10 17:02:00,
2013-04-10 12:12:00,50.0,47.0,29.88,East,82,0.0,0.0,88,0.00,,,0.04,,2013-04-10 17:12:00,
2013-04-10 12:22:00,50.0,47.0,29.88,East,82,0.0,0.0,88,0.00,,,0.04,,2013-04-10 17:22:00,
2013-04-10 16:53:00,50.0,47.0,29.79,NE,46,0.0,0.0,91,-99.99,,,-99.99,,2013-04-10 21:53:00,
2013-04-10 17:03:00,50.0,47.0,29.79,ENE,57,0.0,0.0,90,-99.99,,,-99.99,,2013-04-10 22:03:00,
2013-04-10 17:13:00,50.0,47.0,29.80,ENE,61,0.0,0.0,90,-99.99,,,-99.99,,2013-04-10 22:13:00,
2013-04-10 17:23:00,50.0,47.0,29.80,ENE,61,0.0,0.0,90,-99.99,,,-99.99,,2013-04-10 22:23:00,
2013-04-10 17:33:00,49.0,46.0,29.81,East,85,0.0,0.0,90,-99.99,,,-99.99,,2013-04-10 22:33:00,
2013-04-10 17:42:00,49.0,46.0,29.81,East,85,0.0,0.0,90,-99.99,,,-99.99,,2013-04-10 22:42:00,
2013-04-10 17:53:00,49.0,46.0,29.78,NE,54,0.0,0.0,90,0.00,,,-99.99,,2013-04-10 22:53:00,
2013-04-10 18:02:00,49.0,46.0,29.78,ENE,62,0.0,0.0,90,0.00,,,-99.99,,2013-04-10 23:02:00,
2013-04-10 18:12:00,49.0,46.0,29.78,ENE,62,0.0,0.0,90,0.00,,,-99.99,,2013-04-10 23:12:00,
2013-04-10 18:22:00,49.0,46.0,29.75,NE,53,0.0,0.0,90,0.00,,,-99.99,,2013-04-10 23:22:00,
2013-04-10 18:33:00,48.0,45.0,29.75,ENE,63,0.0,0.0,90,0.00,,,-99.99,,2013-04-10 23:33:00,
2013-04-10 18:42:00,48.0,45.0,29.75,ENE,63,0.0,0.0,90,0.00,,,-99.99,,2013-04-10 23:42:00,
2013-04-10 18:53:00,48.0,45.0,29.73,East,80,0.0,0.0,91,0.00,,,-99.99,,2013-04-10 23:53:00,
2013-04-10 19:02:00,48.0,45.0,29.72,ENE,61,0.0,0.0,90,0.00,,,-99.99,,2013-04-11 00:02:00,
2013-04-10 19:12:00,48.0,45.0,29.72,East,84,0.0,0.0,90,0.00,,,-99.99,,2013-04-11 00:12:00,
2013-04-10 19:22:00,48.0,45.0,29.72,East,84,0.0,0.0,90,0.00,,,-99.99,,2013-04-11 00:22:00,
2013-04-10 19:32:00,48.0,45.0,29.71,ENE,65,0.0,0.0,90,0.00,,,-99.99,,2013-04-11 00:32:00,
2013-04-10 19:42:00,47.0,44.0,29.69,East,80,0.0,0.0,90,0.00,,,-99.99,,2013-04-11 00:42:00,
2013-04-10 19:53:00,47.0,44.0,29.69,East,80,0.0,0.0,90,0.00,,,-99.99,,2013-04-11 00:53:00,
2013-04-10 20:02:00,47.0,44.0,29.69,ENE,61,0.0,0.0,90,0.00,,,-99.99,,2013-04-11 01:02:00,
2013-04-10 20:12:00,47.0,44.0,29.69,ENE,69,0.0,0.0,90,0.00,,,-99.99,,2013-04-11 01:12:00,
2013-04-10 20:22:00,47.0,44.0,29.69,ENE,69,0.0,0.0,90,0.00,,,-99.99,,2013-04-11 01:22:00,
2013-04-10 20:32:00,47.0,44.0,29.67,ENE,70,0.0,0.0,90,0.00,,,-99.99,,2013-04-11 01:32:00,
2013-04-10 20:42:00,47.0,44.0,29.67,ENE,70,0.0,0.0,90,0.00,,,-99.99,,2013-04-11 01:42:00,
2013-04-10 20:52:00,47.0,44.0,29.69,ENE,69,0.0,0.0,90,0.02,,,-99.99,,2013-04-11 01:52:00,
2013-04-10 21:02:00,47.0,44.0,29.70,ENE,57,0.0,0.0,90,0.02,,,-99.99,,2013-04-11 02:02:00,
2013-04-10 21:12:00,46.0,43.0,29.73,North,5,0.0,0.0,90,0.44,,,-99.99,,2013-04-11 02:12:00,
2013-04-10 21:22:00,46.0,43.0,29.73,North,5,0.0,0.0,90,0.44,,,-99.99,,2013-04-11 02:22:00,
2013-04-10 21:32:00,46.0,44.0,29.78,North,351,0.0,0.0,91,0.54,,,-99.99,,2013-04-11 02:32:00,
2013-04-10 21:42:00,46.0,44.0,29.78,North,351,0.0,0.0,91,0.54,,,-99.99,,2013-04-11 02:42:00,
2013-04-10 21:53:00,46.0,44.0,29.80,NE,51,0.0,0.0,91,0.62,,,-99.99,,2013-04-11 02:53:00,
2013-04-10 22:02:00,46.0,44.0,29.78,NNE,26,0.0,0.0,91,0.80,,,-99.99,,2013-04-11 03:02:00,
2013-04-10 22:12:00,46.0,44.0,29.79,East,98,0.0,0.0,91,0.72,,,-99.99,,2013-04-11 03:12:00,
2013-04-10 22:22:00,46.0,44.0,29.79,East,98,0.0,0.0,91,0.72,,,-99.99,,2013-04-11 03:22:00,
2013-04-10 22:33:00,47.0,45.0,29.78,ENE,57,0.0,0.0,91,0.65,,,-99.99,,2013-04-11 03:33:00,
2013-04-10 22:43:00,47.0,45.0,29.78,NE,46,0.0,0.0,91,0.59,,,-99.99,,2013-04-11 03:43:00,
2013-04-10 22:53:00,47.0,45.0,29.78,NE,46,0.0,0.0,91,0.59,,,-99.99,,2013-04-11 03:53:00,
2013-04-10 23:03:00,47.0,45.0,29.76,East,79,0.0,0.0,91,0.42,,,-99.99,,2013-04-11 04:03:00,
2013-04-10 23:12:00,47.0,45.0,29.76,ENE,69,0.0,0.0,91,0.11,,,-99.99,,2013-04-11 04:12:00,
2013-04-10 23:22:00,47.0,45.0,29.76,ENE,69,0.0,0.0,91,0.11,,,-99.99,,2013-04-11 04:22:00,
2013-04-10 23:33:00,47.0,45.0,29.77,East,90,0.0,0.0,91,0.07,,,-99.99,,2013-04-11 04:33:00,
2013-04-10 23:42:00,47.0,45.0,29.77,East,90,0.0,0.0,91,0.07,,,-99.99,,2013-04-11 04:42:00,
2013-04-10 23:53:00,47.0,45.0,29.75,ESE,107,0.0,0.0,91,0.10,,,-99.99,,2013-04-11 04:53:00,